TIANMU-1 15

Last updated on Wed Sep 23 2026 00:03:10 GMT+0000 (Coordinated Universal Time)

1 58700U 24004A 26265.59921640 .00003744 00000+0 14187-3 0 9998 2 58700 97.4668 91.8373 0007186 5.3704 354.7610 15.27504128150641
UTC large
Height (km)
Speed (km/s)
/
Latitude / Longitude
Inclination (degrees)
Orbital Period (minutes)
Azimuth
Elevation
Range (km)
Doppler Factor

Next 0 passes for location: London (51.5072 / 0.1276)

No passes found over London.
TIANMU-1 15